Location: Bukowiec
(51.6830°N, 19.6670°E)
Time: 03:10:55
(UTC+02:00)

ISS - Visible Passes

Search period start: 21 May 2024 00:00
Search period end: 31 May 2024 00:00
Orbit: 409 x 414 km, 51.6° (Epoch: 20 May)

Date Brightness Start Highest point End Pass type
(mag) Time Alt. Az. Time Alt. Az. Time Alt. Az.
21 May -3.0 22:35:43 10° W 22:38:49 36° SSW 22:40:02 26° SSE visible
22 May -3.4 21:45:39 10° W 21:48:54 50° SSW 21:51:45 13° SE visible
22 May -1.5 23:23:10 10° WSW 23:24:32 14° SW 23:24:32 14° SW visible
23 May -2.1 22:32:35 10° W 22:35:08 21° SW 22:36:13 18° S visible
24 May -2.6 21:42:14 10° W 21:45:11 29° SSW 21:47:53 11° SSE visible
25 May -1.3 22:30:19 10° WSW 22:31:06 11° SW 22:31:52 10° SSW visible
26 May -1.6 21:38:58 10° W 21:41:08 16° SW 21:43:16 10° S visible
